Location: Baumgarten
(49.0970°N, 12.7493°E)
Time: 19:18:54
(UTC+00:00)

Cosmos 1048 Rocket - Pass Details

Date: 05 July 2020
Orbit: 744 x 791 km, 74.0° (Epoch: 12 August)

Event Time Altitude Azimuth Distance (km) Brightness Sun altitude
Exits shadow 23:19:34 33° 169° (S) 1,291 4.6 -18.2°
Maximum altitude 23:21:45 56° 107° (ESE) 918 4.3 -18.2°
Drops below altitude 10° 23:26:53 10° 30° (NNE) 2,319 7.4 -18.2°
Sets 23:29:17 0° 27° (NNE) 3,242 8.5 -18.2°
